Cambridge Bay Gsn, Nunavut

1:41 PM MST on February 13, 2016 (GMT -0700)
Cambridge Bay

Weather History for CYCB - March, 2013

Change the Weather History Date:

Saturday, March 16, 2013

  Actual Average Record
Temperature  
Mean Temperature -16 °F -  
Max Temperature -3 °F -11 °F 8 °F (1999)
Min Temperature -28 °F -23 °F -47 °F (2008)
Degree Days  
Heating Degree Days 80    
Moisture  
Dew Point -16 °F    
Average Humidity 66    
Maximum Humidity 71    
Minimum Humidity 49    
Precipitation  
Precipitation 0.01 in - - ()
Sea Level Pressure  
Sea Level Pressure 29.93 in    
Wind  
Wind Speed 16 mph ()    
Max Wind Speed 24 mph    
Max Gust Speed 31 mph    
Visibility 3.6 miles    
Events Snow    
Averages and records for this station are not official NWS values.
T = Trace of Precipitation, MM = Missing Value Source: Averaged Metar Reports

Daily Weather History Graph

Daily Weather History Graph

Search for Another Location

Airport or City:

Trip Planner

Search our weather history database for the weather conditions in past years. The results will help you decide how hot, cold, wet, or windy it might be!

Date:

Astronomy

Mar. 16, 2013 Rise Set
Actual Time 7:15 AM MDT 7:04 PM MDT
Civil Twilight 6:17 AM MDT 8:02 PM MDT
Nautical Twilight 5:06 AM MDT 9:14 PM MDT
Astronomical Twilight 3:39 AM MDT 10:44 PM MDT
Moon 6:51 AM MDT (3/16) 2:08 AM MDT (3/16)
Length of Visible Light 13h 44m
Length of Day
11h 48m
Waxing Crescent, 23% of the Moon is Illuminated
Mar 16
Waxing Crescent
Mar 19
First Quarter
Mar 27
Full
Apr 2
Last Quarter
Apr 10
New

Hourly Weather History & Observations

Time (MDT) Temp. Windchill Dew Point Humidity Pressure Visibility Wind Dir Wind Speed Gust Speed Precip Events Conditions
12:00 AM -13 °F - -22 °F 49% 30.12 in 2 mi NW 17.3 mph - - Snow Light Snow
12:00 AM -13.0 °F -37.5 °F -22.0 °F 64% 30.12 in 2.0 mi NW 17.3 mph - N/A Snow Light Snow
1:00 AM -11.2 °F -34.4 °F -20.2 °F 64% 30.09 in 2.5 mi NW 16.1 mph - N/A Snow Light Snow
1:15 AM - - - N/A% - 4.0 mi NNW 16.1 mph - N/A   Unknown
2:00 AM -11.2 °F -32.9 °F -20.2 °F 64% 30.07 in 6.0 mi NW 13.8 mph - N/A Snow Light Snow
3:00 AM -9.4 °F -30.6 °F -18.4 °F 65% 30.06 in 10.0 mi NNW 13.8 mph - N/A Snow Light Snow
4:00 AM -9.4 °F -30.6 °F -16.6 °F 71% 30.04 in 5.0 mi NNW 13.8 mph - N/A Snow Light Snow
5:00 AM -9.4 °F -30.6 °F -16.6 °F 71% 30.02 in 6.0 mi NNW 13.8 mph - N/A Snow Light Snow
6:00 AM -8 °F - -15 °F 57% 30.00 in 6 mi NNW 16.1 mph - - Snow Light Snow
6:00 AM -7.6 °F -28.3 °F -14.8 °F 71% 30.00 in 6.0 mi NNW 13.8 mph - N/A Snow Light Snow
7:00 AM -7.6 °F -28.3 °F -14.8 °F 71% 29.98 in 3.0 mi NNW 13.8 mph - N/A Snow Light Snow
7:42 AM - - - N/A% - 1.5 mi North 19.6 mph - N/A   Unknown
8:00 AM -5.8 °F -29.4 °F -13.0 °F 71% 29.96 in 1.5 mi NNW 19.6 mph - N/A Snow Light Snow
8:49 AM - - - N/A% - 1.0 mi NNW 17.3 mph - N/A   Unknown
9:00 AM -5.8 °F -29.9 °F -14.8 °F 65% 29.94 in 1.0 mi NNW 20.7 mph - N/A Snow Light Snow
9:16 AM - - - N/A% - 0.4 mi NNW 23.0 mph 28.8 mph N/A   Unknown
9:41 AM - - - N/A% - 0.1 mi North 24.2 mph 29.9 mph N/A   Unknown
10:00 AM -7.6 °F -32.9 °F -14.8 °F 71% 29.92 in 0.2 mi NNW 21.9 mph 31.1 mph N/A Snow Heavy Blowing Snow
10:18 AM - - - N/A% - 0.5 mi NNW 19.6 mph 25.3 mph N/A   Unknown
11:00 AM -7.6 °F -32.9 °F -16.6 °F 65% 29.91 in 0.5 mi North 21.9 mph - N/A Snow Blowing Snow
11:37 AM - - - N/A% - 1.8 mi NNW 18.4 mph - N/A   Unknown
12:00 PM -7 °F - -14 °F 59% 29.91 in 1 mi NNW 17.3 mph - - Snow Light Snow
12:00 PM -5.8 °F -29.4 °F -13.0 °F 71% 29.91 in 1.5 mi NNW 19.6 mph - N/A Snow Light Snow
1:00 PM -9.4 °F -34.1 °F -16.6 °F 71% 29.89 in 2.5 mi North 19.6 mph - N/A Snow Light Snow
1:11 PM - - - N/A% - 5.0 mi NNW 18.4 mph - N/A   Ice Crystals
2:00 PM -9.4 °F -33.5 °F -18.4 °F 65% 29.88 in 8.0 mi North 18.4 mph - N/A Snow Low Drifting Snow
2:32 PM - - - N/A% - 2.5 mi North 19.6 mph - N/A   Unknown
3:00 PM -9.4 °F -33.5 °F -16.6 °F 71% 29.86 in 2.5 mi NNW 18.4 mph - N/A Snow Light Snow
3:17 PM - - - N/A% - 5.0 mi North 18.4 mph - N/A   Unknown
4:00 PM -7.6 °F -27.5 °F -14.8 °F 71% 29.85 in 5.0 mi NW 12.7 mph - N/A Snow Light Snow
5:00 PM -4.0 °F -25.8 °F -11.2 °F 71% 29.83 in 5.0 mi North 17.3 mph 23.0 mph N/A Snow Light Snow
5:40 PM - - - N/A% - 12.0 mi NNW 17.3 mph 23.0 mph N/A   Unknown
6:00 PM -3 °F - -12 °F 52% 29.83 in 12 mi North 18.4 mph - - Snow Snow
6:00 PM -4.0 °F -25.8 °F -11.2 °F 71% 29.83 in 12.0 mi North 17.3 mph 23.0 mph N/A Snow Low Drifting Snow
6:26 PM - - - N/A% - 1.5 mi North 17.3 mph 23.0 mph N/A   Ice Crystals
6:41 PM - - - N/A% - 0.5 mi North 23.0 mph 28.8 mph N/A   Unknown
7:00 PM -7.6 °F -31.7 °F -14.8 °F 71% 29.82 in 0.5 mi North 19.6 mph 25.3 mph N/A Snow Blowing Snow
7:46 PM - - - N/A% - 1.5 mi North 19.6 mph - N/A   Ice Crystals
8:00 PM -7.6 °F -32.3 °F -16.6 °F 65% 29.81 in 1.5 mi North 20.7 mph - N/A Snow Ice Crystals
8:40 PM - - - N/A% - 4.0 mi NNW 16.1 mph - N/A   Ice Crystals
9:00 PM -9.4 °F -32.1 °F -18.4 °F 65% 29.81 in 4.0 mi North 16.1 mph - N/A Snow Ice Crystals
10:00 PM -9.4 °F -34.1 °F -18.4 °F 65% 29.78 in 3.0 mi North 19.6 mph 25.3 mph N/A Snow Ice Crystals
11:00 PM -9.4 °F -34.1 °F -16.6 °F 71% 29.77 in 3.0 mi North 19.6 mph 25.3 mph N/A Snow Ice Crystals